• MPC Preparation (Info)

  • MPEC 2019-G06 : 2019 FO2

    The following Minor Planet Electronic Circular may be linked-to from your own Web pages, but must not otherwise be redistributed electronically.

    A form allowing access to any MPEC is at the bottom of this page.


    Read MPEC 2019-G05 Read MPEC 2019-G07


    M.P.E.C. 2019-G06                                Issued 2019 Apr. 1, 20:20 UT
    
         The Minor Planet Electronic Circulars contain information on unusual
             minor planets and routine data on comets.  They are published
        on behalf of Division F of the International Astronomical Union by the
              Minor Planet Center, Smithsonian Astrophysical Observatory,
                              Cambridge, MA 02138, U.S.A.
    
                 Prepared using the Tamkin Foundation Computer Network
    
                                  MPC@CFA.HARVARD.EDU
                URL https://www.minorplanetcenter.net/    ISSN 1523-6714
    
                                       2019 FO2
    
    Observations:
         K19F02O* C2019 03 31.22831 11 37 56.54 -11 25 31.4          19.6 GVEG006G96
         K19F02O  C2019 03 31.23349 11 38 00.16 -11 25 51.1          19.4 GVEG006G96
         K19F02O  C2019 03 31.23866 11 38 03.80 -11 26 11.5          19.4 GVEG006G96
         K19F02O  C2019 03 31.24385 11 38 07.41 -11 26 30.9          20.2 GVEG006G96
         K19F02O  C2019 03 31.34115 11 39 15.10 -11 32 38.8          20.9 GVEG006I52
         K19F02O  C2019 03 31.34156 11 39 15.39 -11 32 41.0          20.6 GVEG006I52
         K19F02O  C2019 03 31.34198 11 39 15.69 -11 32 42.3          21.2 GVEG006I52
         K19F02O  C2019 03 31.84176 11 45 24.12 -12 02 59.3          20.8 VVEG006033
         K19F02O  C2019 03 31.84329 11 45 25.15 -12 03 04.0          20.7 VVEG006033
         K19F02O  C2019 03 31.84481 11 45 26.12 -12 03 09.2          20.4 VVEG006033
         K19F02O  C2019 03 31.84635 11 45 27.12 -12 03 14.7          20.1 VVEG006033
         K19F02O KC2019 03 31.87188711 45 43.74 -12 04 34.2          20.6 GVEG006L01
         K19F02O pC2019 03 31.87361311 45 44.85 -12 04 40.8          20.6 GVEG006L01
         K19F02O KC2019 03 31.87534111 45 45.96 -12 04 46.6          20.7 GVEG006L01
         K19F02O KC2019 03 31.87735311 45 47.30 -12 04 53.5          20.8 GVEG006L01
         K19F02O KC2019 03 31.87960911 45 48.73 -12 05 01.2          20.6 GVEG006L01
         K19F02O  C2019 03 31.90715 11 46 06.45 -12 06 41.8          19.9 VVEG006033
         K19F02O  C2019 03 31.90872 11 46 07.45 -12 06 47.4          19.6 VVEG006033
         K19F02O  C2019 03 31.91027 11 46 08.45 -12 06 52.8          20.0 VVEG006033
         K19F02O  C2019 03 31.91183 11 46 09.45 -12 06 58.0          19.8 VVEG006033
         K19F02O  C2019 03 31.91338 11 46 10.44 -12 07 03.2          20.2 VVEG006033
         K19F02O  C2019 03 31.91494 11 46 11.43 -12 07 08.0          20.3 VVEG006033
         K19F02O  C2019 04 01.17613 11 49 11.00 -12 20 40.4          20.5 GVEG006I52
         K19F02O  C2019 04 01.17710 11 49 11.64 -12 20 43.9          20.8 GVEG006I52
         K19F02O  C2019 04 01.17807 11 49 12.22 -12 20 46.8          21.3 GVEG006I52
         K19F02O  C2019 04 01.17904 11 49 12.78 -12 20 49.9          21.7 GVEG006I52
         K19F02O KC2019 04 01.23096 11 49 42.91 -12 23 34.8                oEG006711
         K19F02O KC2019 04 01.23376 11 49 44.62 -12 23 43.3                oEG006711
         K19F02O KC2019 04 01.23650 11 49 46.26 -12 23 52.9                oEG006711
         K19F02O KC2019 04 01.42609311 51 49.79 -12 30 21.3          20.5 GVEG006474
         K19F02O KC2019 04 01.42849111 51 51.20 -12 30 27.6          20.3 GVEG006474
         K19F02O KC2019 04 01.43089111 51 52.57 -12 30 35.3          20.6 GVEG006474
    
    Observer details:
    033 Karl Schwarzschild Observatory, Tautenburg.  Observers U. Laux,
        B. Stecklum.  Measurer B. Stecklum.  1.34-m f/3 Schmidt + CCD.
    474 Mount John Observatory, Lake Tekapo.  Observers A. C. Gilmore,
        P. M. Kilmartin.  Measurer P. M. Kilmartin.  1.0-m f/7.7 reflector + CCD.
    711 McDonald Observatory, Fort Davis.  Observer J. G. Ries.  2.1-m reflector
        + CCD + focal reducer.
    G96 Mt. Lemmon Survey.  Observer D. C. Fuls.  Measurers B. M. Africano,
        E. J. Christensen, G. A. Farneth, D. C. Fuls, A. R. Gibbs, A. D. Grauer,
        H. Groeller, R. A. Kowalski, S. M. Larson, G. J. Leonard, T. A. Pruyne,
        R. L. Seaman, F. C. Shelly.  1.5-m reflector + 10K CCD.
    I52 Steward Observatory, Mt. Lemmon Station.  Observer H. Groeller.
        Measurers B. M. Africano, E. J. Christensen, G. A. Farneth, D. C. Fuls,
        A. R. Gibbs, A. D. Grauer, H. Groeller, R. A. Kowalski, S. M. Larson,
        G. J. Leonard, T. A. Pruyne, R. L. Seaman, F. C. Shelly.  1.0-m reflector
        + CCD.
    L01 Visnjan Observatory, Tican.  Observer K. Korlevic.  1.0-m f/2.9 reflector
        + CCD.
    
    Orbital elements:
    2019 FO2                                                 Earth MOID = 0.0021 AU
    Epoch 2019 Apr. 27.0 TT = JDT 2458600.5                 MPC
    M  27.23342              (2000.0)            P               Q
    n   0.41890064     Peri.  150.61859     -0.80018535     -0.59973454
    a   1.7690035      Node   352.52527     +0.54300658     -0.72114129
    e   0.4663234      Incl.    2.06075     +0.25465124     -0.34680502
    P   2.35           H   26.1           G   0.15           U   7
    Residuals in seconds of arc
    190331 G96  0.3+  0.5-    190331 L01  0.5-  0.5+    190401 I52  0.6-  0.1+
    190331 G96  0.0   0.0     190331 L01  0.4-  0.2-    190401 I52  0.1+  0.3-
    190331 G96  0.1+  0.3-    190331 L01  0.4-  0.1-    190401 I52  0.0   0.0
    190331 G96  0.3-  0.4+    190331 L01  0.3+  0.1-    190401 I52  0.4-  0.1+
    190331 I52  0.2-  0.4+    190331 L01  0.1+  0.1-    190401 711  0.8-  0.4-
    190331 I52  0.2-  0.3-    190331 033  0.3+  0.5+    190401 711  0.0   0.0
    190331 I52  0.0   0.1-    190331 033  0.2+  0.1+    190401 711  0.3+  1.0-
    190331 033  0.0   0.2-    190331 033  0.3+  0.1-    190401 474  0.3+  0.5-
    190331 033  0.5+  0.4+    190331 033  0.3+  0.0     190401 474  0.3+  0.6+
    190331 033  0.1+  0.5+    190331 033  0.3+  0.0     190401 474  0.2-  0.3+
    190331 033  0.0   0.3+    190331 033  0.1+  0.4+
    
    Ephemeris:
    2019 FO2                 a,e,i = 1.77, 0.47, 2                   q = 0.9441
    Date    TT    R. A. (2000) Decl.     Delta      r     Elong.  Phase     V
    2019 03 02    02 47 15.2 +21 49 31   0.1103  0.9500    65.2   108.7    25.3
    ...
    2019 03 17    04 50 06.9 +21 42 26   0.04201 0.9869    78.0    99.7    22.8
    ...
    2019 03 25    09 16 57.1 +02 26 30   0.02933 1.0182   135.6    43.3    20.1
    ...
    2019 03 31    11 34 55.4 -11 08 23   0.04923 1.0460   163.3    16.0    20.5
    2019 04 01    11 47 07.8 -12 09 21   0.05368 1.0510   164.8    14.4    20.7
    2019 04 02    11 57 32.7 -12 58 54   0.05830 1.0560   166.0    13.2    20.8
    ...
    2019 04 08    12 36 51.1 -15 39 54   0.08836 1.0879   168.9    10.2    21.7
    ...
    2019 04 16    13 01 11.7 -16 47 29   0.1329  1.1342   169.3     9.4    22.6
    ...
    2019 05 01    13 22 07.8 -17 04 49   0.2294  1.2289   163.4    13.6    24.1
    
    A. U. Tomatic                (C) Copyright 2019 MPC           M.P.E.C. 2019-G06
    

    Read MPEC 2019-G05 Read MPEC 2019-G07


    MPEC number:

    Enter an MPEC number in one of the following forms:

    • 1997-B01 (the full form)
    • J97B01 (the packed version of the full form)
    • B01 (the abbreviated form)